FENGYUN 1C DEB, 30116

Orbit data source: Space-Track

FENGYUN 1C DEB, 30116 is space debris in SSO originally from a launch on Mon, 10 May 1999 UTC launched from the Taiyaun Space Center, China (TSC). Fengyun 1C debris stems from the Chinese weather satellite Fengyun-1C, which was intentionally destroyed by a Chinese anti-satellite missile in 2007. This event dramatically increased the amount of space debris, with thousands of trackable fragments posing hazards to satellites and human spaceflight. The Fengyun 1C debris cloud has become a focal point in discussions about space sustainability and the need for international regulations to prevent the creation of new debris.

Loading next visibility...
Identifier
30116, 1999-025RV
Orbit
SSO
Country
Flag of CNCN / PRC
Related business
Manufacturer
Unknown
Mission
Spacecraft
Bus & Motor
Unknown
Mass
Unknown
Launch date (UTC)
1999-05-10 (27 years ago)
Launch vehicle
Unknown
Launch site
Taiyaun Space Center, China (TSC)
Object type
Payload
Rocket body
Debris
Shape & HBR
Unknown shape, 0.1 m
Radar Cross Section
Medium (>0.1 m² and <1 m²)

Expand to show TLE details & history
Last TLE update: 15 hours ago

TLE from 15 hours ago
0 FENGYUN 1C DEB
1 30116U 99025RV  26254.26329700  .00002211  00000-0  85701-3 0  9994
2 30116  99.3893 351.7022 0018969 275.2865 109.1553 14.31061199 13993
Epoch: 2026-09-11T06:19Z
TLE epoch observation values (Epoch: 2026-09-11T06:19:08.860Z)
Latitude
24.32178°
Longitude
-97.63719°
Altitude
795.601 km
Speed
7.456 km/s
True Right ascension
23h 09m 45s
True Declination
24° 11' 37"
Sunlit
Object was in full shadow at epoch
Visualization orbit readout
Latitude
Unknown
Longitude
Unknown
Altitude
Unknown
Speed
Unknown
Apparent Right ascension
Unknown
Apparent Declination
Unknown
Sunlit
N/A
Visualization observer readout
Local Sidereal Time
13:42:36
Azimuth
Unknown
Elevation
Unknown
Doppler factor
Unknown
Orbital elements
Apogee altitude
798.952 km
Perigee altitude
771.775 km
Semi-major axis
7,163.501 km
Eccentricity
0.0019
Inclination
99.3893°
RAAN
351.7022°
Arg. of periapsis
275.2865°
True anomaly
109.36047°
Mean anomaly
109.1553°
Eccentric anomaly
109.2579°
Mean motion
3.57977 °/min
Orbital period
100.57 mins
BSTAR
0.00085701
Loading maneuver chart data...
Computing Atmospheric mass density...
Loading historical data...
Loading historical data...
Loading historical data...
Loading historical data...
Loading historical data...
Loading historical data...
Loading historical data...

Documentation

Showing up to 5 results
|